Regional Weather Roundup
Issued by NWS

Home | Current Version | Previous Version | Graphics & Text | Print | Product List | Glossary On
Versions: 1 2 3 4 5 6 7 8 9 10 11 12 13 14 15 16 17 18 19 20 21 22 23 24 25 26 27 28 29 30 31 32 33 34 35 36 37 38 39 40 41 42 43 44 45 46 47 48 49 50
000
ASUS43 KLMK 240410
RWRKY
KENTUCKY REGIONAL WEATHER ROUNDUP
NATIONAL WEATHER SERVICE LOUISVILLE KY
1200 AM EDT THU JUL 24 2014

NOTE "FAIR" INDICATES FEW OR NO CLOUDS BELOW 12,000 FEET
WITH NO SIGNIFICANT WEATHER AND/OR OBSTRUCTIONS TO VISIBILITY.

KYZ001>023-026-027-061>063-070>075-240500-
WESTERN AND SOUTH CENTRAL KENTUCKY

CITY           SKY/WX    TMP DP  RH WIND       PRES   REMARKS
PADUCAH        CLEAR     74  69  85 NE6       30.03F
HENDERSON      CLOUDY    73  64  73 N8        30.03S
OWENSBORO      CLOUDY    73  69  87 N6        30.02F
HOPKINSVILLE   MOCLDY    73  70  88 NW5       30.02F
BOWLING GREEN  CLEAR     75  68  78 NW5       30.00S
GLASGOW        PTCLDY    71  71 100 CALM      30.01R FOG
$$

KYZ024-025-028>034-038-045-046-053-240500-
NORTH CENTRAL KENTUCKY

CITY           SKY/WX    TMP DP  RH WIND       PRES   REMARKS
LOUISVILLE/SDF CLOUDY    75  68  78 N14       30.00R
LOUISVILLE/LOU CLOUDY    74  68  81 N10       30.00S
FORT KNOX      CLOUDY    74  71  89 N10       29.99S
$$

KYZ035>037-039>044-047>052-055>060-089>105-240500-
NORTHEAST KENTUCKY

CITY           SKY/WX    TMP DP  RH WIND       PRES   REMARKS
LEXINGTON      MOCLDY    74  67  78 SE6       30.01R
COVINGTON      LGT RAIN  70  66  88 N15       30.01S
FRANKFORT      MOCLDY    74  70  87 N5        29.98S
$$

KYZ054-064>069-076>088-106>120-240500-
SOUTHEAST KENTUCKY

CITY           SKY/WX    TMP DP  RH WIND       PRES   REMARKS
JACKSON        LGT RAIN  68  66  93 CALM      30.03R VSB 1/4
LONDON         LGT RAIN  71  68  90 CALM      30.02F
SOMERSET       PTCLDY    68  68 100 CALM      30.02F FOG
MIDDLESBORO    CLOUDY    71  68  90 CALM      30.02R
MONTICELLO     CLOUDY    71  71 100 CALM      30.02F FOG
$$



USA.gov is the U.S. government's official web portal to all federal, state and local government web resources and services.